User: anonymous   Login
Location: Newark
(22.8000°N, 86.1800°E)
Time: 08:59:14
(UTC+00:00)
Language:

XW-2F - Orbit

View from above orbital plane
View from above orbital plane
View from above satellite
View from above satellite

Ground track
Ground track

The orbit data is extracted from the following two-line orbital elements,

1 40910U 15049M   20157.82473087  .00000997  00000-0  52337-4 0  9996
2 40910  97.4679 161.6077 0015849  46.2297  32.4142 15.17929378260571
Epoch (UTC): 05 June 2020 19:47:36
Eccentricity: 0.0015849
inclination: 97.4679°
perigee height: 501 km
apogee height: 523 km
right ascension of ascending node: 161.6077°
argument of perigee: 46.2297°
revolutions per day: 15.17929378
mean anomaly at epoch: 32.4142°
orbit number at epoch: 26057

The dashed part of the orbit path shows where the satellite is in the earth's shadow,  

DLR